Total_Precipitation_Accumulation
1.18 1.23 1.29 1.27 1.31 1.44 1.56 1.60 1.58 1.52 1.52 1.51 1.26 1.10 1.01 1.03 1.12 1.18 1.29 1.09 0.74 0.58 0.52 0.52 0.57 0.65 0.73 0.87 1.01 1.16 1.29 1.41 1.54 1.69 1.88 2.03 2.12 2.19
1.32 1.40 1.40 1.34 1.38 1.45 1.50 1.62 1.73 1.74 1.63 1.48 1.31 1.19 1.11 0.97 0.99 0.96 1.03 0.91 0.67 0.56 0.50 0.47 0.46 0.48 0.54 0.62 0.70 0.83 0.95 1.13 1.30 1.41 1.54 1.66 1.78 1.87
1.21 1.23 1.22 1.26 1.31 1.26 1.34 1.47 1.63 1.77 1.64 1.53 1.45 1.41 1.34 1.24 1.11 0.91 0.79 0.70 0.62 0.59 0.51 0.46 0.46 0.46 0.46 0.48 0.53 0.61 0.72 0.88 1.05 1.16 1.28 1.44 1.55 1.65
1.22 1.15 1.07 1.13 1.23 1.24 1.33 1.36 1.42 1.64 1.63 1.61 1.60 1.62 1.53 1.35 1.25 1.11 0.91 0.79 0.75 0.69 0.58 0.50 0.44 0.44 0.43 0.44 0.49 0.54 0.63 0.73 0.88 0.99 1.04 1.08 1.21 1.40
1.16 1.09 1.02 1.02 1.07 1.17 1.28 1.32 1.32 1.38 1.53 1.57 1.60 1.67 1.65 1.45 1.27 1.15 1.05 1.07 0.98 0.81 0.63 0.53 0.47 0.43 0.42 0.41 0.49 0.58 0.71 0.73 0.74 0.83 0.93 1.00 1.05 1.11
0.90 0.85 0.89 1.00 1.06 1.06 1.06 1.10 1.15 1.25 1.34 1.41 1.50 1.62 1.67 1.60 1.38 1.25 1.24 1.20 1.12 0.86 0.73 0.60 0.51 0.44 0.40 0.36 0.39 0.53 0.68 0.75 0.81 0.83 0.87 0.93 1.00 1.05
0.71 0.58 0.58 0.75 0.89 0.92 0.86 0.91 0.96 1.04 1.10 1.20 1.31 1.46 1.56 1.64 1.46 1.28 1.24 1.31 1.27 1.14 0.98 0.80 0.66 0.58 0.55 0.51 0.44 0.44 0.50 0.61 0.72 0.87 1.02 1.12 1.17 1.18
0.56 0.52 0.51 0.52 0.55 0.57 0.62 0.67 0.74 0.82 0.95 1.11 1.23 1.32 1.35 1.45 1.54 1.51 1.45 1.41 1.41 1.38 1.38 1.31 1.03 0.94 0.90 0.84 0.67 0.46 0.37 0.44 0.58 0.71 0.95 1.22 1.46 1.53
0.47 0.51 0.41 0.36 0.41 0.41 0.42 0.40 0.42 0.48 0.60 0.83 1.05 1.15 1.27 1.30 1.51 1.57 1.59 1.70 1.71 1.70 1.67 1.72 1.45 1.19 1.01 0.93 0.83 0.59 0.45 0.39 0.47 0.60 0.71 0.92 1.21 1.53
0.42 0.45 0.46 0.47 0.48 0.49 0.47 0.45 0.40 0.38 0.39 0.47 0.69 0.94 1.15 1.38 1.46 1.54 1.62 1.69 1.72 1.61 1.55 1.66 1.59 1.47 1.24 0.94 0.83 0.73 0.61 0.52 0.50 0.57 0.59 0.63 0.76 0.99
0.46 0.48 0.49 0.50 0.48 0.37 0.40 0.43 0.44 0.45 0.37 0.37 0.47 0.69 0.89 1.00 1.22 1.42 1.55 1.48 1.43 1.26 1.11 1.21 1.33 1.39 1.43 1.27 0.96 0.87 0.75 0.63 0.60 0.60 0.58 0.58 0.63 0.69
0.65 0.62 0.50 0.43 0.38 0.28 0.34 0.46 0.45 0.45 0.50 0.46 0.40 0.47 0.61 0.75 0.81 0.93 1.15 1.26 1.17 1.13 0.96 0.86 0.87 0.99 1.13 1.08 0.93 0.88 0.89 0.80 0.67 0.65 0.66 0.65 0.71 0.67
0.77 0.73 0.66 0.47 0.33 0.28 0.29 0.39 0.42 0.45 0.58 0.62 0.61 0.61 0.72 0.84 0.81 0.77 0.86 0.99 1.01 0.89 0.82 0.89 0.86 0.78 0.76 0.80 0.82 0.74 0.78 0.90 0.87 0.77 0.72 0.73 0.78 0.82
0.91 0.88 0.80 0.56 0.40 0.34 0.32 0.32 0.30 0.32 0.44 0.56 0.60 0.59 0.64 0.74 0.83 0.81 0.85 0.88 0.91 0.84 0.82 0.88 0.95 0.90 0.75 0.65 0.64 0.60 0.59 0.68 0.82 1.01 1.09 1.10 0.99 0.96
1.00 1.01 0.83 0.64 0.54 0.43 0.40 0.41 0.37 0.35 0.46 0.52 0.52 0.53 0.55 0.66 0.86 0.98 1.00 1.00 0.97 0.83 0.72 0.69 0.78 0.91 0.88 0.70 0.58 0.55 0.55 0.63 0.74 0.92 1.04 1.14 1.21 1.21
0.95 1.01 0.89 0.74 0.65 0.57 0.52 0.50 0.47 0.48 0.54 0.56 0.57 0.62 0.65 0.73 0.81 0.90 0.98 1.01 0.97 0.80 0.70 0.66 0.68 0.80 0.88 0.77 0.66 0.62 0.61 0.69 0.76 0.93 1.10 1.17 1.20 1.28
1.00 1.06 1.08 0.97 0.86 0.76 0.73 0.75 0.75 0.70 0.64 0.68 0.72 0.75 0.74 0.75 0.81 0.86 0.92 0.94 0.89 0.75 0.65 0.69 0.74 0.82 0.83 0.80 0.75 0.64 0.61 0.60 0.63 0.75 0.93 1.05 1.15 1.23
0.95 1.00 1.10 1.10 1.03 0.96 0.91 0.93 0.94 0.89 0.83 0.84 0.83 0.83 0.81 0.78 0.80 0.85 0.87 0.87 0.84 0.78 0.68 0.64 0.71 0.82 0.88 0.81 0.66 0.57 0.55 0.51 0.55 0.67 0.75 0.76 0.78 0.88
0.86 0.93 1.02 1.09 1.07 1.04 0.99 0.98 0.95 0.97 0.97 0.93 0.88 0.88 0.85 0.80 0.77 0.80 0.81 0.84 0.84 0.83 0.81 0.78 0.71 0.64 0.64 0.61 0.56 0.48 0.51 0.51 0.57 0.63 0.69 0.64 0.60 0.67
0.82 0.88 0.94 0.99 1.01 1.02 1.02 1.02 0.99 1.01 0.98 0.94 0.89 0.87 0.85 0.79 0.79 0.79 0.75 0.75 0.80 0.85 0.88 0.81 0.71 0.60 0.51 0.58 0.64 0.59 0.50 0.59 0.62 0.59 0.57 0.59 0.59 0.57
0.81 0.85 0.87 0.88 0.92 0.95 0.96 1.00 0.99 0.95 0.92 0.94 0.89 0.84 0.82 0.80 0.78 0.77 0.77 0.77 0.77 0.80 0.77 0.67 0.62 0.72 0.79 0.78 0.73 0.68 0.65 0.60 0.68 0.68 0.65 0.63 0.62 0.60
0.78 0.81 0.77 0.76 0.81 0.86 0.90 0.94 0.93 0.93 0.93 0.89 0.86 0.81 0.77 0.75 0.72 0.72 0.74 0.74 0.73 0.73 0.74 0.81 0.85 0.84 0.81 0.70 0.61 0.67 0.77 0.73 0.71 0.74 0.70 0.68 0.62 0.54
0.75 0.70 0.67 0.68 0.72 0.76 0.78 0.81 0.84 0.89 0.87 0.84 0.86 0.81 0.75 0.74 0.73 0.74 0.71 0.71 0.73 0.77 0.85 0.91 0.91 0.82 0.76 0.77 0.73 0.72 0.75 0.80 0.82 0.79 0.69 0.62 0.57 0.51